,,PA_Meas_PMT16A,,PR_Meas_QMR101_102,,RH_Meas_QMH101,,SR_Meas_QMS101,,TA_Meas_QMH101,,GenWind,,GenWind,
time,status,PA,status,PR,status,RH,status,SR,status,TA,status,DirAvg,status,SpdAvg,
2015-01-02, 00:00:05,VALID,919.051,VALID,0,VALID,97.0613,VALID,0,VALID,19.3113,VALID,124,VALID,0,
2015-01-02, 00:01:05,VALID,919.04,VALID,0,VALID,97.0766,VALID,0,VALID,19.2918,VALID,124,VALID,0,
2015-01-02, 00:02:05,VALID,919.04,VALID,0,VALID,97.1071,VALID,0,VALID,19.3128,VALID,123,VALID,0,
2015-01-02, 00:03:05,VALID,919.047,VALID,0,VALID,97.1223,VALID,0.107441,VALID,19.3128,VALID,124,VALID,0,
2015-01-02, 00:04:05,VALID,919.039,VALID,0,VALID,97.1376,VALID,0.107441,VALID,19.2933,VALID,124,VALID,0,
2015-01-02, 00:05:05,VALID,919.061,VALID,0,VALID,97.1528,VALID,0,VALID,19.3128,VALID,124,VALID,0,
2015-01-02, 00:06:05,VALID,919.054,VALID,0,VALID,97.1528,VALID,0,VALID,19.2723,VALID,124,VALID,0,
2015-01-02, 00:07:05,VALID,919.047,VALID,0,VALID,97.1909,VALID,0.107441,VALID,19.2933,VALID,124,VALID,0,
2015-01-02, 00:08:04,VALID,919.048,VALID,0,VALID,97.1833,VALID,0.107441,VALID,19.2738,VALID,124,VALID,0,
2015-01-02, 00:09:04,VALID,919.046,VALID,0,VALID,97.1757,VALID,0,VALID,19.2528,VALID,124,VALID,0,
2015-01-02, 00:10:04,VALID,919.037,VALID,0,VALID,97.1833,VALID,0.107441,VALID,19.2528,VALID,124,VALID,0,
2015-01-02, 00:11:04,VALID,919.01,VALID,0,VALID,97.1833,VALID,0,VALID,19.2738,VALID,124,VALID,0,
2015-01-02, 00:12:04,VALID,918.966,VALID,0,VALID,97.1909,VALID,0.107441,VALID,19.2334,VALID,124,VALID,0,
2015-01-02, 00:13:04,VALID,918.953,VALID,0,VALID,97.1833,VALID,0,VALID,19.2543,VALID,124,VALID,0,
2015-01-02, 00:14:04,VALID,918.936,VALID,0,VALID,97.1757,VALID,0,VALID,19.2738,VALID,124,VALID,0,
2015-01-02, 00:15:04,VALID,918.894,VALID,0,VALID,97.1757,VALID,0.107441,VALID,19.2738,VALID,124,VALID,0,
2015-01-02, 00:16:04,VALID,918.89,VALID,0,VALID,97.1604,VALID,0.107441,VALID,19.2723,VALID,124,VALID,0,
2015-01-02, 00:17:04,VALID,918.877,VALID,0,VALID,97.1376,VALID,0.107441,VALID,19.2723,VALID,124,VALID,0,
2015-01-02, 00:18:04,VALID,918.866,VALID,0,VALID,97.1299,VALID,0,VALID,19.2933,VALID,124,VALID,0,
2015-01-02, 00:19:04,VALID,918.863,VALID,0,VALID,97.0994,VALID,0.107441,VALID,19.3128,VALID,124,VALID,0.132031,
2015-01-02, 00:20:04,VALID,918.873,VALID,0,VALID,97.0766,VALID,0.107441,VALID,19.2528,VALID,124,VALID,0,
2015-01-02, 00:21:04,VALID,918.838,VALID,0,VALID,97.0537,VALID,0.107441,VALID,19.2933,VALID,124,VALID,0,
2015-01-02, 00:22:04,VALID,918.823,VALID,0,VALID,97.0308,VALID,0,VALID,19.3128,VALID,124,VALID,0,
2015-01-02, 00:23:04,VALID,918.794,VALID,0,VALID,97.008,VALID,0,VALID,19.2933,VALID,124,VALID,0,
2015-01-02, 00:24:04,VALID,918.794,VALID,0,VALID,97.008,VALID,0.107441,VALID,19.2933,VALID,124,VALID,0.712109,
2015-01-02, 00:25:04,VALID,918.779,VALID,0,VALID,96.9622,VALID,0.107441,VALID,19.2933,VALID,124,VALID,0.1125,
2015-01-02, 00:26:04,VALID,918.769,VALID,0,VALID,96.9317,VALID,0,VALID,19.2723,VALID,127,VALID,0,
2015-01-02, 00:27:04,VALID,918.737,VALID,0,VALID,96.9089,VALID,0.107441,VALID,19.3113,VALID,127,VALID,0.00429688,
2015-01-02, 00:28:04,VALID,918.735,VALID,0,VALID,96.8555,VALID,0,VALID,19.3518,VALID,124,VALID,0,
2015-01-02, 00:29:04,VALID,918.707,VALID,0,VALID,96.7869,VALID,0,VALID,19.3518,VALID,131,VALID,1.11719,
2015-01-02, 00:30:04,VALID,918.718,VALID,0,VALID,96.703,VALID,0,VALID,19.3908,VALID,135,VALID,1.05156,
2015-01-02, 00:31:04,VALID,918.721,VALID,0,VALID,96.5734,VALID,0,VALID,19.4103,VALID,136,VALID,0.961328,
2015-01-02, 00:32:04,VALID,918.716,VALID,0,VALID,96.4515,VALID,0,VALID,19.4703,VALID,138,VALID,1.20313,
2015-01-02, 00:33:04,VALID,918.683,VALID,0,VALID,96.3295,VALID,0.107441,VALID,19.4298,VALID,134,VALID,1.08867,
2015-01-02, 00:34:04,VALID,918.678,VALID,0,VALID,96.1999,VALID,0,VALID,19.4493,VALID,128,VALID,1.14063,
2015-01-02, 00:35:04,VALID,918.659,VALID,0,VALID,96.0703,VALID,0.107441,VALID,19.4283,VALID,133,VALID,0.996094,
2015-01-02, 00:36:04,VALID,918.645,VALID,0,VALID,95.9864,VALID,0.107441,VALID,19.4298,VALID,144,VALID,1.2168,
2015-01-02, 00:37:04,VALID,918.641,VALID,0,VALID,95.9559,VALID,0.107441,VALID,19.4283,VALID,128,VALID,1.07344,
2015-01-02, 00:38:04,VALID,918.637,VALID,0,VALID,95.9026,VALID,0,VALID,19.4298,VALID,145,VALID,0.898438,
2015-01-02, 00:39:04,VALID,918.598,VALID,0,VALID,95.8873,VALID,0,VALID,19.4298,VALID,143,VALID,0.924609,
2015-01-02, 00:40:04,VALID,918.592,VALID,0,VALID,95.9178,VALID,0,VALID,19.4103,VALID,142,VALID,0,
2015-01-02, 00:41:04,VALID,918.558,VALID,0,VALID,95.895,VALID,0,VALID,19.4118,VALID,141,VALID,0.925391,
2015-01-02, 00:42:04,VALID,918.56,VALID,0,VALID,95.8873,VALID,0,VALID,19.3728,VALID,133,VALID,0.487109,
2015-01-02, 00:43:04,VALID,918.546,VALID,0,VALID,95.895,VALID,0,VALID,19.3338,VALID,134,VALID,0,
2015-01-02, 00:44:04,VALID,918.554,VALID,0,VALID,95.9483,VALID,0,VALID,19.2948,VALID,134,VALID,0,
2015-01-02, 00:45:04,VALID,918.533,VALID,0,VALID,96.0017,VALID,0,VALID,19.2558,VALID,121,VALID,0.435937,
2015-01-02, 00:46:04,VALID,918.533,VALID,0,VALID,96.0855,VALID,0,VALID,19.2168,VALID,122,VALID,0.576953,
2015-01-02, 00:47:04,VALID,918.543,VALID,0,VALID,96.1923,VALID,0,VALID,19.1973,VALID,125,VALID,0.577734,
2015-01-02, 00:48:04,VALID,918.523,VALID,0,VALID,96.2685,VALID,0,VALID,19.1583,VALID,122,VALID,0.753516,
2015-01-02, 00:49:04,VALID,918.538,VALID,0,VALID,96.3142,VALID,0,VALID,19.1178,VALID,120,VALID,0,
2015-01-02, 00:50:04,VALID,918.504,VALID,0,VALID,96.3829,VALID,0,VALID,19.0998,VALID,120,VALID,0,
2015-01-02, 00:51:04,VALID,918.49,VALID,0,VALID,96.4362,VALID,0,VALID,19.0803,VALID,120,VALID,0,
2015-01-02, 00:52:04,VALID,918.493,VALID,0,VALID,96.4438,VALID,0,VALID,19.0608,VALID,117,VALID,0,
2015-01-02, 00:53:04,VALID,918.477,VALID,0,VALID,96.5201,VALID,0,VALID,19.0608,VALID,116,VALID,0,
2015-01-02, 00:54:04,VALID,918.485,VALID,0,VALID,96.5963,VALID,0,VALID,19.0413,VALID,116,VALID,0,
2015-01-02, 00:55:04,VALID,918.474,VALID,0,VALID,96.6115,VALID,0,VALID,19.0413,VALID,116,VALID,0,
2015-01-02, 00:56:04,VALID,918.454,VALID,0,VALID,96.6725,VALID,0,VALID,19.0218,VALID,117,VALID,0,
2015-01-02, 00:57:04,VALID,918.444,VALID,0,VALID,96.7335,VALID,0,VALID,19.0023,VALID,116,VALID,0,
2015-01-02, 00:58:04,VALID,918.465,VALID,0,VALID,96.7259,VALID,0,VALID,18.9828,VALID,115,VALID,0,
2015-01-02, 00:59:04,VALID,918.427,VALID,0,VALID,96.7869,VALID,0,VALID,18.9828,VALID,126,VALID,0,
2015-01-02, 01:00:04,VALID,918.411,VALID,0,VALID,96.825,VALID,0,VALID,18.9828,VALID,132,VALID,0,
2015-01-02, 01:01:04,VALID,918.417,VALID,0,VALID,96.8784,VALID,0,VALID,18.9828,VALID,132,VALID,0,
2015-01-02, 01:02:04,VALID,918.422,VALID,0,VALID,96.9317,VALID,0,VALID,19.0023,VALID,134,VALID,0,
2015-01-02, 01:03:04,VALID,918.401,VALID,0,VALID,96.9698,VALID,0,VALID,18.9828,VALID,133,VALID,0,
2015-01-02, 01:04:04,VALID,918.404,VALID,0,VALID,97.0003,VALID,0,VALID,18.9828,VALID,129,VALID,0,
2015-01-02, 01:05:04,VALID,918.352,VALID,0,VALID,97.008,VALID,0,VALID,18.9842,VALID,133,VALID,0.0195313,
2015-01-02, 01:06:04,VALID,918.36,VALID,0,VALID,97.0537,VALID,0,VALID,18.9438,VALID,145,VALID,0,
2015-01-02, 01:07:04,VALID,918.352,VALID,0,VALID,97.0613,VALID,0,VALID,18.9243,VALID,123,VALID,0,
2015-01-02, 01:08:04,VALID,918.35,VALID,0,VALID,97.0842,VALID,0,VALID,18.9452,VALID,125,VALID,0,
2015-01-02, 01:09:04,VALID,918.325,VALID,0,VALID,97.0842,VALID,0,VALID,18.9243,VALID,130,VALID,0,
2015-01-02, 01:10:04,VALID,918.304,VALID,0,VALID,97.0613,VALID,0,VALID,18.9424,VALID,130,VALID,0,
2015-01-02, 01:11:04,VALID,918.284,VALID,0,VALID,97.0385,VALID,0,VALID,18.9814,VALID,133,VALID,1.24219,
2015-01-02, 01:12:04,VALID,918.266,VALID,0,VALID,96.9546,VALID,0,VALID,19.0203,VALID,133,VALID,1.09336,
2015-01-02, 01:13:04,VALID,918.252,VALID,0,VALID,96.8555,VALID,0,VALID,19.0608,VALID,137,VALID,1.04727,
2015-01-02, 01:14:04,VALID,918.214,VALID,0,VALID,96.6573,VALID,0,VALID,19.0788,VALID,129,VALID,1.28125,
2015-01-02, 01:15:04,VALID,918.216,VALID,0,VALID,96.3752,VALID,0,VALID,19.0983,VALID,138,VALID,1.23242,
2015-01-02, 01:16:04,VALID,918.202,VALID,0,VALID,96.0017,VALID,0,VALID,19.1193,VALID,134,VALID,1.06055,
2015-01-02, 01:17:04,VALID,918.178,VALID,0,VALID,95.4909,VALID,0,VALID,19.1373,VALID,133,VALID,1.12852,
2015-01-02, 01:18:04,VALID,918.178,VALID,0,VALID,94.599,VALID,0,VALID,19.1568,VALID,133,VALID,1.10859,
2015-01-02, 01:19:04,VALID,918.161,VALID,0,VALID,93.2268,VALID,0,VALID,19.1958,VALID,129,VALID,1.29141,
2015-01-02, 01:20:04,VALID,918.117,VALID,0,VALID,92.2128,VALID,0,VALID,19.2153,VALID,132,VALID,1.24141,
2015-01-02, 01:21:04,VALID,918.135,VALID,0,VALID,91.6335,VALID,0,VALID,19.2153,VALID,126,VALID,0.947266,
2015-01-02, 01:22:04,VALID,918.08,VALID,0,VALID,91.3209,VALID,0,VALID,19.2348,VALID,108,VALID,0.819141,
2015-01-02, 01:23:04,VALID,918.108,VALID,0,VALID,91.237,VALID,0,VALID,19.2168,VALID,110,VALID,1.07266,
2015-01-02, 01:24:04,VALID,918.068,VALID,0,VALID,91.2447,VALID,0,VALID,19.2168,VALID,114,VALID,0.933594,
2015-01-02, 01:25:04,VALID,918.066,VALID,0,VALID,91.42,VALID,0,VALID,19.1373,VALID,114,VALID,0.642969,
2015-01-02, 01:26:04,VALID,918.049,VALID,0,VALID,91.6335,VALID,0,VALID,19.1178,VALID,107,VALID,0,
2015-01-02, 01:27:04,VALID,918.045,VALID,0,VALID,91.8545,VALID,0,VALID,19.0983,VALID,105,VALID,0.848828,
2015-01-02, 01:28:04,VALID,917.984,VALID,0,VALID,92.0146,VALID,0,VALID,19.0593,VALID,105,VALID,0,
2015-01-02, 01:29:04,VALID,917.985,VALID,0,VALID,92.4797,VALID,0,VALID,19.0593,VALID,120,VALID,1.11797,
2015-01-02, 01:30:04,VALID,917.918,VALID,0,VALID,93.0362,VALID,0,VALID,19.0398,VALID,131,VALID,1.13906,
2015-01-02, 01:31:04,VALID,917.901,VALID,0,VALID,93.4936,VALID,0,VALID,19.0203,VALID,115,VALID,1.06797,
2015-01-02, 01:32:04,VALID,917.877,VALID,0,VALID,93.8366,VALID,0,VALID,19.0008,VALID,126,VALID,0.954297,
2015-01-02, 01:33:04,VALID,917.851,VALID,0,VALID,94.5609,VALID,0,VALID,19.0023,VALID,131,VALID,1.12891,
2015-01-02, 01:34:04,VALID,917.849,VALID,0,VALID,95.0564,VALID,0.107441,VALID,19.0008,VALID,137,VALID,1.00781,
2015-01-02, 01:35:04,VALID,917.833,VALID,0,VALID,95.2927,VALID,0,VALID,19.0008,VALID,130,VALID,1.08047,
2015-01-02, 01:36:04,VALID,917.81,VALID,0,VALID,95.3994,VALID,0,VALID,18.9619,VALID,113,VALID,0.786328,
2015-01-02, 01:37:04,VALID,917.794,VALID,0,VALID,95.59,VALID,0,VALID,18.9229,VALID,136,VALID,0.939062,
2015-01-02, 01:38:04,VALID,917.788,VALID,0,VALID,95.7577,VALID,0,VALID,18.9034,VALID,134,VALID,1.09258,
2015-01-02, 01:39:04,VALID,917.8,VALID,0,VALID,95.9178,VALID,0,VALID,18.8839,VALID,132,VALID,1.18398,
2015-01-02, 01:40:04,VALID,917.775,VALID,0,VALID,96.0398,VALID,0.107441,VALID,18.8644,VALID,131,VALID,1.19531,
2015-01-02, 01:41:04,VALID,917.799,VALID,0,VALID,96.1618,VALID,0.107441,VALID,18.8045,VALID,131,VALID,1.02422,
2015-01-02, 01:42:04,VALID,917.779,VALID,0,VALID,96.2609,VALID,0.107441,VALID,18.8059,VALID,131,VALID,0.571875,
2015-01-02, 01:43:04,VALID,917.778,VALID,0,VALID,96.3524,VALID,0,VALID,18.7864,VALID,128,VALID,0.482812,
2015-01-02, 01:44:04,VALID,917.771,VALID,0,VALID,96.3447,VALID,0.107441,VALID,18.7474,VALID,127,VALID,0.376172,
2015-01-02, 01:45:04,VALID,917.747,VALID,0,VALID,96.3447,VALID,0.107441,VALID,18.7669,VALID,127,VALID,0,
2015-01-02, 01:46:04,VALID,917.768,VALID,0,VALID,96.3676,VALID,0.107441,VALID,18.7669,VALID,126,VALID,0,
2015-01-02, 01:47:04,VALID,917.749,VALID,0,VALID,96.3676,VALID,0,VALID,18.7669,VALID,126,VALID,0,
2015-01-02, 01:48:04,VALID,917.785,VALID,0,VALID,96.3752,VALID,0.107441,VALID,18.7864,VALID,126,VALID,0,
2015-01-02, 01:49:04,VALID,917.791,VALID,0,VALID,96.3524,VALID,0.107441,VALID,18.7669,VALID,126,VALID,0,
2015-01-02, 01:50:04,VALID,917.743,VALID,0,VALID,96.299,VALID,0.107441,VALID,18.7669,VALID,126,VALID,0,
2015-01-02, 01:51:04,VALID,917.777,VALID,0,VALID,96.2304,VALID,0.107441,VALID,18.7474,VALID,126,VALID,0,
2015-01-02, 01:52:04,VALID,917.745,VALID,0,VALID,96.1084,VALID,0,VALID,18.7279,VALID,126,VALID,0,
2015-01-02, 01:53:04,VALID,917.738,VALID,0,VALID,96.0703,VALID,0,VALID,18.7279,VALID,126,VALID,0,
2015-01-02, 01:54:04,VALID,917.753,VALID,0,VALID,96.0017,VALID,0,VALID,18.7279,VALID,126,VALID,0,
2015-01-02, 01:55:04,VALID,917.716,VALID,0,VALID,95.9407,VALID,0.107441,VALID,18.7669,VALID,126,VALID,0,
2015-01-02, 01:56:04,VALID,917.69,VALID,0,VALID,95.7958,VALID,0,VALID,18.8059,VALID,125,VALID,0,
2015-01-02, 01:57:04,VALID,917.693,VALID,0,VALID,95.6586,VALID,0.107441,VALID,18.8449,VALID,125,VALID,0,
2015-01-02, 01:58:04,VALID,917.689,VALID,0,VALID,95.468,VALID,0.107441,VALID,18.8449,VALID,125,VALID,0,
2015-01-02, 01:59:04,VALID,917.68,VALID,0,VALID,95.3003,VALID,0.107441,VALID,18.8644,VALID,125,VALID,0,
2015-01-02, 02:00:04,VALID,917.685,VALID,0,VALID,95.1479,VALID,0,VALID,18.8449,VALID,125,VALID,0,
2015-01-02, 02:01:04,VALID,917.669,VALID,0,VALID,94.9573,VALID,0.107441,VALID,18.8449,VALID,125,VALID,0,
2015-01-02, 02:02:04,VALID,917.646,VALID,0,VALID,94.7286,VALID,0.107441,VALID,18.8254,VALID,125,VALID,0,
2015-01-02, 02:03:04,VALID,917.629,VALID,0,VALID,94.7819,VALID,0,VALID,18.8059,VALID,125,VALID,0,
2015-01-02, 02:04:04,VALID,917.652,VALID,0,VALID,94.7591,VALID,0.107441,VALID,18.8059,VALID,125,VALID,0,
2015-01-02, 02:05:04,VALID,917.632,VALID,0,VALID,94.5761,VALID,0,VALID,18.7669,VALID,125,VALID,0,
2015-01-02, 02:06:04,VALID,917.626,VALID,0,VALID,94.8048,VALID,0,VALID,18.7279,VALID,125,VALID,0,
2015-01-02, 02:07:04,VALID,917.624,VALID,0,VALID,95.0259,VALID,0,VALID,18.7084,VALID,125,VALID,0,
2015-01-02, 02:08:04,VALID,917.618,VALID,0,VALID,94.9878,VALID,0,VALID,18.6694,VALID,125,VALID,0,
2015-01-02, 02:09:04,VALID,917.627,VALID,0,VALID,95.2393,VALID,0,VALID,18.6903,VALID,125,VALID,0,
2015-01-02, 02:10:04,VALID,917.633,VALID,0,VALID,95.3766,VALID,0.107441,VALID,18.6889,VALID,117,VALID,0,
2015-01-02, 02:11:04,VALID,917.601,VALID,0,VALID,95.3384,VALID,0.107441,VALID,18.7279,VALID,117,VALID,0,
2015-01-02, 02:12:04,VALID,917.609,VALID,0,VALID,95.3003,VALID,0,VALID,18.7878,VALID,117,VALID,0,
2015-01-02, 02:13:04,VALID,917.598,VALID,0,VALID,95.0716,VALID,0.107441,VALID,18.7669,VALID,117,VALID,0,
2015-01-02, 02:14:04,VALID,917.614,VALID,0,VALID,94.9268,VALID,0,VALID,18.7669,VALID,117,VALID,0,
2015-01-02, 02:15:04,VALID,917.609,VALID,0,VALID,94.8582,VALID,0.107441,VALID,18.7864,VALID,117,VALID,0,
2015-01-02, 02:16:04,VALID,917.587,VALID,0,VALID,94.7286,VALID,0.107441,VALID,18.7864,VALID,117,VALID,0,
2015-01-02, 02:17:04,VALID,917.587,VALID,0,VALID,94.4008,VALID,0,VALID,18.8254,VALID,119,VALID,0,
2015-01-02, 02:18:04,VALID,917.601,VALID,0,VALID,93.9586,VALID,0,VALID,18.8658,VALID,121,VALID,0,
2015-01-02, 02:19:04,VALID,917.594,VALID,0,VALID,93.6155,VALID,0.107441,VALID,18.8449,VALID,116,VALID,0,
2015-01-02, 02:20:04,VALID,917.609,VALID,0,VALID,93.3945,VALID,0,VALID,18.8644,VALID,116,VALID,0,
2015-01-02, 02:21:04,VALID,917.607,VALID,0,VALID,93.1963,VALID,0,VALID,18.8644,VALID,122,VALID,0,
2015-01-02, 02:22:04,VALID,917.61,VALID,0,VALID,93.0667,VALID,0,VALID,18.8644,VALID,123,VALID,0,
2015-01-02, 02:23:04,VALID,917.585,VALID,0,VALID,92.9981,VALID,0.107441,VALID,18.8644,VALID,124,VALID,0,
2015-01-02, 02:24:04,VALID,917.577,VALID,0,VALID,93.0895,VALID,0,VALID,18.8449,VALID,124,VALID,0,
2015-01-02, 02:25:04,VALID,917.573,VALID,0,VALID,93.1505,VALID,0.107441,VALID,18.8254,VALID,122,VALID,0,
2015-01-02, 02:26:04,VALID,917.543,VALID,0,VALID,93.2268,VALID,0.107441,VALID,18.8254,VALID,123,VALID,0,
2015-01-02, 02:27:04,VALID,917.526,VALID,0,VALID,93.2496,VALID,0,VALID,18.8254,VALID,123,VALID,0,
2015-01-02, 02:28:04,VALID,917.488,VALID,0,VALID,93.2725,VALID,0,VALID,18.8059,VALID,123,VALID,0,
2015-01-02, 02:29:04,VALID,917.485,VALID,0,VALID,93.3106,VALID,0.107441,VALID,18.8059,VALID,123,VALID,0,
2015-01-02, 02:30:04,VALID,917.497,VALID,0,VALID,93.3411,VALID,0.107441,VALID,18.7864,VALID,123,VALID,0,
2015-01-02, 02:31:04,VALID,917.489,VALID,0,VALID,93.4478,VALID,0.107441,VALID,18.7669,VALID,123,VALID,0,
2015-01-02, 02:32:04,VALID,917.466,VALID,0,VALID,93.5241,VALID,0.107441,VALID,18.7474,VALID,123,VALID,0,
2015-01-02, 02:33:04,VALID,917.484,VALID,0,VALID,93.5469,VALID,0.107441,VALID,18.7474,VALID,124,VALID,0,
2015-01-02, 02:34:04,VALID,917.475,VALID,0,VALID,93.4173,VALID,0.107441,VALID,18.7279,VALID,127,VALID,0,
2015-01-02, 02:35:04,VALID,917.485,VALID,0,VALID,93.3106,VALID,0.107441,VALID,18.7474,VALID,133,VALID,0,
2015-01-02, 02:36:04,VALID,917.484,VALID,0,VALID,93.2039,VALID,0,VALID,18.7474,VALID,134,VALID,0,
2015-01-02, 02:37:04,VALID,917.467,VALID,0,VALID,92.9371,VALID,0.107441,VALID,18.7683,VALID,134,VALID,0,
2015-01-02, 02:38:04,VALID,917.459,VALID,0,VALID,92.838,VALID,0.107441,VALID,18.7864,VALID,134,VALID,0,
2015-01-02, 02:39:04,VALID,917.444,VALID,0,VALID,92.6093,VALID,0.107441,VALID,18.8073,VALID,134,VALID,0,
2015-01-02, 02:40:04,VALID,917.456,VALID,0,VALID,92.5483,VALID,0,VALID,18.7864,VALID,134,VALID,0,
2015-01-02, 02:41:04,VALID,917.433,VALID,0,VALID,92.4415,VALID,0,VALID,18.8268,VALID,134,VALID,0,
2015-01-02, 02:42:04,VALID,917.39,VALID,0,VALID,92.4339,VALID,0,VALID,18.8059,VALID,134,VALID,0,
2015-01-02, 02:43:04,VALID,917.433,VALID,0,VALID,92.5178,VALID,0,VALID,18.8254,VALID,136,VALID,0,
2015-01-02, 02:44:04,VALID,917.391,VALID,0,VALID,92.5025,VALID,0,VALID,18.8463,VALID,143,VALID,0,
2015-01-02, 02:45:04,VALID,917.398,VALID,0,VALID,92.5178,VALID,0,VALID,18.8463,VALID,143,VALID,0,
2015-01-02, 02:46:04,VALID,917.371,VALID,0,VALID,92.5711,VALID,0,VALID,18.8449,VALID,143,VALID,0,
2015-01-02, 02:47:04,VALID,917.379,VALID,0,VALID,92.5788,VALID,0,VALID,18.8449,VALID,143,VALID,0,
2015-01-02, 02:48:04,VALID,917.366,VALID,0,VALID,92.6626,VALID,0,VALID,18.8449,VALID,143,VALID,0,
2015-01-02, 02:49:04,VALID,917.396,VALID,0,VALID,92.7541,VALID,0,VALID,18.8059,VALID,143,VALID,0,
2015-01-02, 02:50:04,VALID,917.387,VALID,0,VALID,92.7541,VALID,0,VALID,18.8059,VALID,146,VALID,0,
2015-01-02, 02:51:04,VALID,917.415,VALID,0,VALID,92.7541,VALID,0,VALID,18.8268,VALID,147,VALID,0,
2015-01-02, 02:52:04,VALID,917.409,VALID,0,VALID,92.7236,VALID,0,VALID,18.8268,VALID,147,VALID,0,
2015-01-02, 02:53:04,VALID,917.398,VALID,0,VALID,92.6931,VALID,0,VALID,18.8059,VALID,147,VALID,0,
2015-01-02, 02:54:04,VALID,917.405,VALID,0,VALID,92.5559,VALID,0,VALID,18.7864,VALID,147,VALID,0,
2015-01-02, 02:55:04,VALID,917.409,VALID,0,VALID,92.3958,VALID,0,VALID,18.8254,VALID,147,VALID,0,
2015-01-02, 02:56:04,VALID,917.394,VALID,0,VALID,92.2433,VALID,0,VALID,18.8449,VALID,147,VALID,0,
2015-01-02, 02:57:04,VALID,917.397,VALID,0,VALID,92.1976,VALID,0,VALID,18.8449,VALID,147,VALID,0,
2015-01-02, 02:58:04,VALID,917.429,VALID,0,VALID,92.2967,VALID,0,VALID,18.8254,VALID,147,VALID,0,
2015-01-02, 02:59:04,VALID,917.405,VALID,0,VALID,92.5102,VALID,0,VALID,18.8254,VALID,147,VALID,0,
2015-01-02, 03:00:04,VALID,917.389,VALID,0,VALID,92.7617,VALID,0,VALID,18.7864,VALID,147,VALID,0,
2015-01-02, 03:01:04,VALID,917.38,VALID,0,VALID,92.9828,VALID,0,VALID,18.7669,VALID,147,VALID,0,
2015-01-02, 03:02:04,VALID,917.365,VALID,0,VALID,93.12,VALID,0,VALID,18.7878,VALID,147,VALID,0,
2015-01-02, 03:03:04,VALID,917.34,VALID,0,VALID,93.2191,VALID,0,VALID,18.7669,VALID,147,VALID,0,
2015-01-02, 03:04:04,VALID,917.35,VALID,0,VALID,93.2725,VALID,0,VALID,18.7683,VALID,147,VALID,0,
2015-01-02, 03:05:04,VALID,917.337,VALID,0,VALID,93.3487,VALID,0,VALID,18.7488,VALID,147,VALID,0,
2015-01-02, 03:06:04,VALID,917.339,VALID,0,VALID,93.3868,VALID,0,VALID,18.7488,VALID,147,VALID,0,
2015-01-02, 03:07:04,VALID,917.327,VALID,0,VALID,93.4936,VALID,0,VALID,18.7488,VALID,144,VALID,0,
2015-01-02, 03:08:04,VALID,917.33,VALID,0,VALID,93.4859,VALID,0,VALID,18.7098,VALID,141,VALID,0,
2015-01-02, 03:09:04,VALID,917.325,VALID,0,VALID,93.7604,VALID,0,VALID,18.6903,VALID,129,VALID,0,
2015-01-02, 03:10:04,VALID,917.345,VALID,0,VALID,93.9662,VALID,0,VALID,18.6708,VALID,129,VALID,0,
2015-01-02, 03:11:04,VALID,917.343,VALID,0,VALID,94.2102,VALID,0,VALID,18.6513,VALID,113,VALID,0,
2015-01-02, 03:12:04,VALID,917.318,VALID,0,VALID,94.7667,VALID,0,VALID,18.6124,VALID,112,VALID,0,
2015-01-02, 03:13:04,VALID,917.32,VALID,0,VALID,95.0564,VALID,0,VALID,18.6124,VALID,112,VALID,0,
2015-01-02, 03:14:04,VALID,917.34,VALID,0,VALID,95.3003,VALID,0,VALID,18.5929,VALID,112,VALID,0,
2015-01-02, 03:15:04,VALID,917.352,VALID,0,VALID,95.468,VALID,0,VALID,18.5734,VALID,110,VALID,0,
2015-01-02, 03:16:04,VALID,917.327,VALID,0,VALID,95.651,VALID,0,VALID,18.5539,VALID,110,VALID,0,
2015-01-02, 03:17:04,VALID,917.344,VALID,0,VALID,95.8035,VALID,0,VALID,18.5734,VALID,110,VALID,0,
2015-01-02, 03:18:04,VALID,917.366,VALID,0,VALID,95.8873,VALID,0,VALID,18.5929,VALID,116,VALID,0,
2015-01-02, 03:19:04,VALID,917.346,VALID,0,VALID,95.9483,VALID,0,VALID,18.5914,VALID,123,VALID,0,
2015-01-02, 03:20:04,VALID,917.346,VALID,0,VALID,96.0017,VALID,0,VALID,18.6124,VALID,133,VALID,0,
2015-01-02, 03:21:04,VALID,917.301,VALID,0,VALID,96.055,VALID,0,VALID,18.6124,VALID,125,VALID,0,
2015-01-02, 03:22:04,VALID,917.316,VALID,0,VALID,96.0932,VALID,0,VALID,18.6124,VALID,129,VALID,0,
2015-01-02, 03:23:04,VALID,917.336,VALID,0,VALID,96.116,VALID,0,VALID,18.5914,VALID,135,VALID,0,
2015-01-02, 03:24:04,VALID,917.336,VALID,0,VALID,96.177,VALID,0,VALID,18.6319,VALID,133,VALID,0,
2015-01-02, 03:25:04,VALID,917.346,VALID,0,VALID,96.2151,VALID,0,VALID,18.5914,VALID,131,VALID,0,
2015-01-02, 03:26:04,VALID,917.332,VALID,0,VALID,96.2685,VALID,0,VALID,18.5929,VALID,129,VALID,0,
2015-01-02, 03:27:04,VALID,917.337,VALID,0,VALID,96.3066,VALID,0,VALID,18.5539,VALID,127,VALID,0,
2015-01-02, 03:28:04,VALID,917.361,VALID,0,VALID,96.3752,VALID,0,VALID,18.5344,VALID,130,VALID,0,
2015-01-02, 03:29:04,VALID,917.354,VALID,0,VALID,96.4591,VALID,0,VALID,18.5344,VALID,131,VALID,0,
2015-01-02, 03:30:04,VALID,917.346,VALID,0,VALID,96.5506,VALID,0,VALID,18.5149,VALID,135,VALID,0,
2015-01-02, 03:31:04,VALID,917.379,VALID,0,VALID,96.6268,VALID,0,VALID,18.5149,VALID,138,VALID,0,
2015-01-02, 03:32:04,VALID,917.378,VALID,0,VALID,96.6878,VALID,0,VALID,18.5135,VALID,137,VALID,0,
2015-01-02, 03:33:04,VALID,917.34,VALID,0,VALID,96.7107,VALID,0,VALID,18.5135,VALID,138,VALID,0,
2015-01-02, 03:34:04,VALID,917.357,VALID,0,VALID,96.7564,VALID,0,VALID,18.5135,VALID,138,VALID,0,
2015-01-02, 03:35:04,VALID,917.357,VALID,0,VALID,96.7945,VALID,0,VALID,18.5135,VALID,138,VALID,0,
2015-01-02, 03:36:04,VALID,917.348,VALID,0,VALID,96.8098,VALID,0,VALID,18.533,VALID,138,VALID,0,
2015-01-02, 03:37:04,VALID,917.354,VALID,0,VALID,96.825,VALID,0,VALID,18.5525,VALID,138,VALID,0,
2015-01-02, 03:38:04,VALID,917.377,VALID,0,VALID,96.8174,VALID,0,VALID,18.5734,VALID,138,VALID,0,
2015-01-02, 03:39:04,VALID,917.37,VALID,0,VALID,96.7869,VALID,0,VALID,18.5525,VALID,138,VALID,0,
2015-01-02, 03:40:04,VALID,917.385,VALID,0,VALID,96.764,VALID,0,VALID,18.572,VALID,138,VALID,0,
2015-01-02, 03:41:04,VALID,917.403,VALID,0,VALID,96.7564,VALID,0,VALID,18.5914,VALID,153,VALID,0,
2015-01-02, 03:42:04,VALID,917.394,VALID,0,VALID,96.7335,VALID,0.107441,VALID,18.5914,VALID,153,VALID,0,
2015-01-02, 03:43:04,VALID,917.372,VALID,0,VALID,96.6497,VALID,0,VALID,18.5929,VALID,148,VALID,0,
2015-01-02, 03:44:04,VALID,917.385,VALID,0,VALID,96.6039,VALID,0,VALID,18.572,VALID,148,VALID,0,
2015-01-02, 03:45:04,VALID,917.385,VALID,0,VALID,96.5734,VALID,0,VALID,18.6124,VALID,148,VALID,0,
2015-01-02, 03:46:04,VALID,917.378,VALID,0,VALID,96.5658,VALID,0,VALID,18.6109,VALID,130,VALID,0.185156,
2015-01-02, 03:47:04,VALID,917.371,VALID,0,VALID,96.5201,VALID,0.107441,VALID,18.6513,VALID,139,VALID,0,
2015-01-02, 03:48:04,VALID,917.367,VALID,0,VALID,96.4591,VALID,0,VALID,18.6708,VALID,139,VALID,0,
2015-01-02, 03:49:04,VALID,917.365,VALID,0,VALID,96.3752,VALID,0,VALID,18.6903,VALID,130,VALID,0,
2015-01-02, 03:50:04,VALID,917.353,VALID,0,VALID,96.2914,VALID,0,VALID,18.6889,VALID,140,VALID,0,
2015-01-02, 03:51:04,VALID,917.333,VALID,0,VALID,96.1923,VALID,0,VALID,18.6889,VALID,140,VALID,0,
2015-01-02, 03:52:04,VALID,917.35,VALID,0,VALID,96.1389,VALID,0,VALID,18.7084,VALID,140,VALID,0,